Vertical_Velocity
1 2 1 -0 -0 1 2 1 1 -0 -0 -0 0 0 -0 -0 -1 0 -2 -1 -0 2 0 -3 -3 -1 -2 -4 -2 -2 -10 -3 -6 -4 3 -6 -12 -7 -6 -7 2 1 -3 7 9
2 1 -0 -0 0 2 1 2 1 -2 -0 -1 1 1 -0 0 1 -1 -0 1 -2 -2 -3 -4 -6 -6 -4 2 -3 -10 -5 -3 -12 -9 -0 -2 -6 -10 -4 -4 4 -6 -3 -8 -4
2 2 1 1 0 1 1 1 0 1 1 -1 0 1 1 1 0 -0 -2 1 4 4 -1 -3 -3 -6 -3 -10 -8 -7 -6 -4 -9 -10 -7 -9 0 -9 -15 9 -4 -7 11 1 -3
2 2 1 1 1 2 1 1 1 0 1 1 -1 0 -1 -1 -1 1 0 -2 1 -4 -3 -4 -4 -2 -5 -1 -2 -2 -10 -7 -3 -3 5 -6 -8 -5 -8 -2 -0 0 1 -4 7
1 1 1 2 2 2 2 2 -1 1 0 1 -0 -0 -1 -1 1 1 0 1 -1 -0 -3 -2 -2 2 -2 -5 -2 -8 1 -5 -4 -5 -5 -2 -15 -11 -7 -5 -4 -1 -3 -0 -1
1 1 3 2 2 2 3 2 1 2 1 -0 1 -1 -2 -0 1 1 0 0 -5 -2 -4 -5 -1 -2 -3 -1 -8 -7 -9 -3 -2 -1 1 2 -9 -7 -11 -0 -2 -3 -1 3 3
2 2 2 3 3 2 2 1 2 2 -1 0 -1 -2 -2 -1 -1 -1 -2 -5 -4 -3 -3 -1 -4 -4 -3 -6 3 -4 7 -10 -13 -8 -5 4 -8 -5 -6 -5 2 -1 -3 1 -7
3 3 2 4 3 2 1 1 3 2 -0 0 -1 -0 -1 -0 0 -1 -1 -2 -2 -1 -2 -7 -7 -4 -2 -2 -3 -9 -9 6 -17 -7 -6 -2 8 -16 -9 -10 -1 -3 2 -6 4
3 3 3 4 1 2 1 3 2 1 1 -1 -1 0 -1 -0 1 -1 -0 -2 -1 -2 -2 -2 -2 -3 -5 -2 -6 1 -1 -11 7 0 -4 -13 6 1 -0 -1 -1 -3 -6 -4 -5
1 2 3 3 -0 2 2 1 0 -0 -2 -1 -0 -1 -2 -0 0 -0 -1 -4 -2 -2 -2 -5 -2 -8 -6 -7 -8 -10 -5 3 -16 -7 -2 -8 -3 -8 -2 -5 -4 -3 -3 -5 -3
1 -0 1 1 -1 2 2 0 1 -2 -2 -1 -1 -0 -1 0 -1 -2 -3 -1 -2 -4 -5 -4 -6 -4 -5 -4 -5 -1 -7 -6 -8 -16 8 -1 -7 -6 -1 -4 -9 -3 -5 -5 -4
2 -1 -1 0 1 0 1 2 2 0 5 1 1 -0 -2 0 -1 -2 -1 -1 -1 -1 -4 -1 -4 -3 -5 -1 -4 -5 1 -3 8 5 -15 1 4 -6 -5 -6 -6 -8 -2 -8 -7
4 2 2 -0 -1 1 2 1 -1 -1 1 3 0 -1 -1 -0 -0 -2 -3 -3 -3 -1 -3 -5 -1 0 -5 -2 1 -11 -7 1 -17 5 -1 4 12 0 -3 -7 -7 -5 -3 -5 -8
1 1 -1 1 0 1 -0 -1 -2 -2 -3 1 1 -2 -0 -3 3 -0 -2 -2 -2 -3 -3 1 -2 -4 -6 -2 -3 3 0 -3 -1 -6 -7 -19 -20 -5 -2 -6 -9 -5 -2 -2 -7
-1 -2 -1 1 1 -0 -0 -0 -1 -1 -9 -7 -3 -1 -1 -2 -7 10 -1 -1 -6 -3 -2 -5 -5 -2 -4 -4 -5 4 -9 -5 1 -1 -3 -5 -11 -11 -4 -4 -7 -7 -6 -5 -3
0 -0 -1 -1 -1 -1 -0 0 0 0 -1 0 -2 1 -0 -2 0 -3 -2 -3 -2 2 -2 -2 -1 -3 -3 -4 -7 -4 1 -5 -0 0 4 -5 -3 5 -7 -6 -7 -5 -6 -6 -5
1 1 -0 -1 0 0 -0 0 -1 2 1 0 -1 -1 2 -0 2 -1 2 -1 -4 -14 2 1 -3 -0 -0 -5 -3 -8 -4 -10 -14 -12 4 -6 -2 4 -5 -2 -3 -6 -7 -7 -3
0 0 -0 1 2 2 2 0 1 2 -0 2 0 -2 -3 -0 3 -3 0 3 1 -6 -6 -1 -4 -0 4 -1 -4 -3 3 -0 -25 -11 5 17 -1 -5 -1 -4 -4 -4 -3 -5 -7
-1 1 1 -0 1 0 -0 1 -1 6 4 0 1 -3 4 1 -4 -7 3 2 -1 2 -1 -10 -2 -2 -2 -1 -3 -7 -4 -1 -11 9 -4 4 3 7 -0 -2 -1 -5 -6 -4 -5
0 -0 0 0 -0 0 -2 1 -5 -2 -2 1 4 1 -2 -0 -2 -6 3 3 -5 -2 -3 -4 -15 8 1 0 0 -3 -2 -7 -6 -17 -22 -4 0 -2 -0 -5 -1 -2 -3 -4 -3
-0 -2 2 -0 -1 -1 -2 -0 -1 2 0 -2 2 -8 1 -6 2 -2 -4 -6 -2 -4 -2 -1 4 3 0 1 1 -1 0 1 -2 5 -11 -24 13 -10 1 -4 -5 -1 -0 -4 -4
0 -2 3 1 -3 -0 4 0 8 5 2 -7 -1 -1 1 1 -6 -2 -0 7 -6 -1 -6 3 -16 5 -3 -1 1 2 0 1 -3 -1 -1 -2 3 -7 3 -1 -2 -1 -1 -0 -4
-3 -2 1 -2 -4 1 2 1 -5 6 5 -2 -1 5 10 3 -11 -0 6 8 -1 5 -13 2 -12 -3 -8 1 -4 -4 6 -1 -4 0 18 -10 3 -9 -6 1 -3 0 -2 -2 -1
-5 -7 0 0 0 -1 -2 6 1 6 1 -1 -4 2 -2 -0 7 -17 1 -8 -3 6 -9 -5 -2 10 2 -1 -3 -8 2 -4 1 -3 -13 18 -13 17 -9 1 -4 -2 -1 -4 -6
11 5 3 -5 5 -1 -0 1 11 6 -4 3 -1 12 0 -12 4 -2 -3 -2 3 5 -5 -1 -11 -6 4 10 -6 -3 11 -1 -1 5 -21 18 -22 5 -4 -0 -2 -2 -0 -1 -2
-5 -1 -0 -1 3 3 7 19 8 13 -7 11 -9 -3 -3 2 3 -8 -5 8 6 6 1 -1 -12 -7 -9 11 -2 -13 10 11 1 14 -9 -7 4 -24 0 -1 -1 -2 -2 -0 2
13 9 0 9 9 -3 13 6 9 13 8 12 -1 1 -3 13 4 8 -2 -2 -3 3 5 -1 -1 8 -30 0 -10 -16 14 15 6 5 -10 -5 -3 -1 5 1 1 1 -2 -2 1
Height
5782 5782 5782 5783 5783 5785 5786 5788 5788 5789 5790 5791 5791 5791 5791 5790 5788 5787 5784 5782 5779 5776 5773 5769 5767 5764 5760 5756 5751 5746 5740 5733 5725 5716 5707 5699 5692 5679 5664 5650 5644 5650 5653 5664 5674
5780 5779 5779 5780 5781 5782 5784 5786 5786 5787 5788 5789 5789 5788 5788 5786 5785 5782 5780 5777 5774 5771 5767 5763 5759 5756 5752 5747 5742 5737 5730 5722 5714 5704 5696 5686 5675 5664 5648 5634 5629 5628 5633 5644 5654
5777 5776 5776 5776 5778 5780 5782 5783 5784 5785 5785 5786 5786 5785 5784 5782 5781 5777 5775 5772 5769 5765 5761 5757 5753 5750 5745 5741 5733 5727 5719 5710 5700 5691 5682 5673 5660 5647 5633 5624 5616 5614 5622 5627 5639
5773 5773 5773 5774 5775 5777 5779 5780 5782 5783 5783 5783 5782 5780 5779 5778 5777 5773 5770 5766 5762 5759 5756 5751 5747 5743 5739 5732 5724 5717 5708 5699 5690 5680 5669 5660 5647 5638 5619 5608 5602 5601 5607 5618 5625
5769 5769 5770 5771 5772 5775 5777 5778 5779 5779 5780 5779 5778 5776 5775 5773 5770 5767 5764 5760 5757 5753 5749 5744 5740 5736 5730 5724 5716 5708 5699 5689 5679 5669 5658 5649 5636 5625 5612 5600 5596 5596 5599 5603 5610
5766 5766 5767 5768 5770 5772 5774 5776 5776 5776 5776 5775 5773 5772 5771 5769 5765 5761 5758 5754 5750 5746 5743 5739 5733 5727 5722 5716 5708 5700 5691 5681 5669 5659 5648 5640 5629 5612 5603 5595 5588 5588 5589 5592 5598
5762 5763 5765 5766 5768 5770 5771 5772 5772 5772 5772 5770 5769 5767 5765 5763 5759 5755 5752 5748 5745 5741 5737 5731 5726 5720 5714 5707 5700 5692 5683 5672 5659 5651 5640 5628 5620 5604 5597 5589 5582 5582 5582 5582 5581
5758 5759 5762 5764 5765 5767 5768 5768 5768 5768 5767 5766 5764 5762 5759 5756 5754 5750 5746 5743 5739 5734 5729 5724 5719 5712 5706 5699 5692 5684 5676 5665 5653 5643 5634 5621 5616 5597 5589 5582 5576 5574 5575 5575 5576
5756 5758 5759 5762 5763 5764 5764 5764 5764 5764 5762 5761 5759 5757 5754 5751 5748 5744 5740 5736 5732 5727 5722 5717 5711 5705 5699 5691 5684 5676 5667 5658 5648 5635 5626 5616 5610 5598 5585 5577 5569 5563 5564 5563 5561
5755 5757 5758 5760 5761 5760 5760 5760 5759 5759 5757 5755 5753 5752 5749 5745 5741 5737 5733 5729 5724 5720 5715 5710 5704 5697 5690 5684 5675 5666 5658 5648 5640 5630 5618 5608 5600 5592 5580 5571 5564 5556 5553 5552 5547
5754 5755 5756 5757 5758 5757 5757 5756 5757 5755 5752 5750 5748 5745 5742 5739 5735 5731 5726 5721 5717 5713 5707 5701 5696 5690 5682 5674 5667 5658 5649 5638 5631 5621 5611 5600 5593 5585 5576 5564 5556 5548 5545 5543 5540
5754 5754 5754 5755 5754 5753 5753 5751 5750 5750 5748 5745 5742 5739 5735 5732 5729 5724 5720 5716 5711 5706 5700 5694 5688 5682 5674 5665 5658 5649 5641 5631 5622 5614 5602 5594 5589 5575 5567 5559 5549 5542 5536 5535 5532
5751 5752 5752 5751 5750 5749 5748 5746 5744 5742 5741 5739 5735 5732 5729 5725 5720 5716 5712 5708 5703 5697 5692 5686 5680 5673 5666 5656 5649 5639 5631 5623 5613 5606 5599 5586 5585 5570 5561 5552 5544 5535 5529 5526 5524
5747 5747 5747 5747 5747 5744 5742 5741 5738 5735 5733 5732 5728 5724 5721 5716 5714 5709 5703 5700 5694 5690 5684 5678 5671 5664 5657 5648 5640 5631 5622 5614 5606 5598 5589 5576 5570 5561 5553 5545 5538 5531 5524 5518 5516
5745 5743 5743 5741 5739 5738 5736 5733 5730 5728 5724 5723 5719 5716 5712 5709 5703 5702 5696 5690 5685 5681 5676 5669 5662 5654 5647 5639 5632 5622 5612 5604 5597 5588 5580 5569 5559 5552 5545 5538 5531 5524 5518 5510 5506
5738 5737 5736 5735 5733 5730 5728 5725 5723 5722 5716 5715 5711 5707 5704 5699 5695 5690 5686 5681 5676 5672 5667 5659 5653 5646 5638 5630 5623 5614 5604 5595 5587 5578 5571 5560 5552 5548 5537 5531 5524 5517 5509 5502 5496
5731 5729 5728 5726 5724 5721 5719 5717 5715 5712 5710 5706 5702 5698 5695 5690 5686 5682 5677 5672 5666 5659 5657 5650 5644 5637 5629 5621 5613 5607 5595 5586 5576 5565 5560 5553 5544 5538 5528 5522 5516 5510 5502 5494 5488
5722 5721 5718 5717 5715 5712 5709 5707 5704 5703 5698 5695 5692 5688 5685 5680 5676 5672 5668 5663 5657 5650 5644 5638 5633 5626 5620 5611 5603 5597 5587 5577 5565 5558 5551 5546 5537 5530 5521 5515 5508 5502 5495 5487 5479
5713 5711 5709 5707 5704 5701 5700 5698 5694 5693 5689 5685 5681 5677 5675 5671 5665 5661 5658 5653 5647 5641 5634 5626 5622 5616 5610 5601 5595 5586 5579 5567 5558 5549 5539 5535 5532 5524 5513 5507 5499 5491 5485 5478 5471
5703 5701 5699 5696 5693 5691 5689 5688 5684 5681 5677 5674 5670 5666 5663 5660 5654 5648 5645 5642 5635 5630 5623 5616 5609 5607 5601 5592 5584 5576 5570 5557 5548 5538 5530 5522 5521 5513 5504 5497 5491 5484 5477 5468 5461
5691 5690 5690 5686 5682 5680 5678 5676 5673 5671 5667 5663 5659 5654 5652 5648 5643 5638 5635 5629 5623 5617 5612 5604 5601 5596 5589 5580 5573 5565 5558 5547 5539 5531 5520 5510 5512 5500 5494 5488 5481 5474 5467 5460 5452
5679 5676 5677 5674 5670 5668 5667 5664 5662 5660 5657 5651 5647 5643 5640 5636 5629 5625 5623 5617 5610 5604 5600 5594 5587 5582 5577 5569 5561 5554 5547 5538 5527 5521 5511 5501 5504 5493 5484 5478 5470 5463 5457 5451 5443
5666 5665 5664 5661 5657 5656 5653 5650 5647 5647 5644 5639 5634 5631 5628 5623 5615 5613 5610 5605 5597 5590 5585 5581 5575 5567 5563 5557 5548 5541 5536 5527 5518 5510 5505 5488 5490 5484 5473 5469 5460 5453 5446 5442 5436
5655 5651 5651 5647 5646 5642 5639 5637 5636 5633 5629 5625 5620 5619 5614 5609 5603 5599 5596 5589 5584 5579 5569 5565 5562 5557 5552 5542 5535 5528 5521 5517 5506 5500 5491 5485 5475 5477 5459 5456 5449 5444 5437 5431 5427
5644 5639 5635 5632 5633 5630 5627 5624 5624 5621 5614 5611 5607 5607 5599 5593 5590 5585 5580 5574 5570 5565 5556 5549 5546 5541 5539 5532 5523 5518 5510 5507 5495 5492 5475 5477 5461 5464 5449 5444 5440 5435 5428 5422 5416
5626 5624 5621 5619 5618 5615 5612 5613 5607 5602 5597 5596 5591 5589 5583 5579 5576 5569 5564 5559 5555 5550 5542 5536 5528 5523 5524 5518 5510 5504 5502 5494 5485 5478 5465 5457 5457 5443 5439 5435 5431 5425 5418 5412 5406
5608 5607 5603 5603 5602 5599 5599 5597 5592 5588 5586 5581 5576 5571 5567 5568 5560 5556 5548 5545 5540 5536 5529 5521 5516 5503 5500 5499 5493 5492 5490 5482 5473 5464 5453 5444 5443 5436 5430 5425 5421 5414 5408 5402 5395